User: anonymous   Login
Location: Fort Wayne
(41.1310°N, 85.1290°W)
Time: 13:15:01
(UTC-04:00)
Language:

BREEZE-M DEB (TANK) - Orbit

View from above orbital plane
View from above orbital plane
View from above satellite
View from above satellite

Ground track
Ground track

The orbit data is extracted from the following two-line orbital elements,

1 27821U 03024B   15142.32476198  .00005559  00000-0  70860-3 0  9990
2 27821 049.5684 229.2352 4981604 176.9292 261.2765 05.67064933237139
Epoch (UTC): 22 May 2015 07:47:39
Eccentricity: 0.4981604
inclination: 49.5684°
perigee height: 288 km
apogee height: 13522 km
right ascension of ascending node: 229.2352°
argument of perigee: 176.9292°
revolutions per day: 5.67064933
mean anomaly at epoch: 261.2765°
orbit number at epoch: 23713

The dashed part of the orbit path shows where the satellite is in the earth's shadow,  

DLR